N23GC TIST-KJFK

Flight info

Callsign N23GC
Flight time 3h 58m
Altitude 40000
Route PALCO7 PALCO RTE6 SJU DCT ACONY/N0483F430 Y185 DONQU/N0488F410 DCT LUCTI/M086F430 L454 OKONU/N0486F410 DCT YAALE DCT YETTI DCT MOUGH/N0486F430 Y495 CAMRN CAMRN5
Aircraft A359/H-SDE2E3GHIJ3J4J5LM1ORWXY/LB1D1

Departure

Time 2026-05-06 23:22
Airport Cyril E. King Airport (TIST)

Arrival

Time 2026-05-07 03:20
Airport John F. Kennedy International Airport (KJFK)
Time Latitude Longitude Altitude Speed Heading
2026-05-06 22:46 18.33571 -64.97255 38 ft 0 kts 177°
2026-05-06 23:10 18.33572 -64.97255 38 ft 2 kts 177°
2026-05-06 23:10 18.33598 -64.97255 36 ft 4 kts 178°
2026-05-06 23:10 18.33620 -64.97256 37 ft 4 kts 197°
2026-05-06 23:11 18.33637 -64.97246 34 ft 4 kts 236°
2026-05-06 23:11 18.33648 -64.97223 36 ft 4 kts 258°
2026-05-06 23:11 18.33651 -64.97199 35 ft 1 kts 266°
2026-05-06 23:11 18.33651 -64.97194 35 ft 0 kts 266°
2026-05-06 23:17 18.33651 -64.97195 35 ft 2 kts 266°
2026-05-06 23:17 18.33649 -64.97232 35 ft 7 kts 266°
2026-05-06 23:17 18.33645 -64.97302 38 ft 12 kts 266°
2026-05-06 23:17 18.33640 -64.97378 38 ft 11 kts 264°
2026-05-06 23:18 18.33628 -64.97472 38 ft 15 kts 262°
2026-05-06 23:18 18.33612 -64.97595 38 ft 19 kts 262°
2026-05-06 23:18 18.33606 -64.97667 38 ft 10 kts 265°
2026-05-06 23:18 18.33600 -64.97749 38 ft 10 kts 268°
2026-05-06 23:19 18.33598 -64.97827 38 ft 11 kts 268°
2026-05-06 23:19 18.33596 -64.97916 38 ft 13 kts 267°
2026-05-06 23:19 18.33591 -64.98021 38 ft 11 kts 266°
2026-05-06 23:19 18.33593 -64.98115 38 ft 15 kts 269°
2026-05-06 23:20 18.33589 -64.98208 38 ft 9 kts 266°
2026-05-06 23:20 18.33585 -64.98285 38 ft 12 kts 275°
2026-05-06 23:20 18.33615 -64.98320 38 ft 7 kts 335°
2026-05-06 23:20 18.33670 -64.98312 36 ft 11 kts 36°
2026-05-06 23:21 18.33691 -64.98232 36 ft 12 kts 87°
2026-05-06 23:21 18.33698 -64.98094 37 ft 44 kts 87°
2026-05-06 23:21 18.33722 -64.97471 45 ft 123 kts 86°
2026-05-06 23:21 18.33795 -64.96355 334 ft 162 kts 86°
2026-05-06 23:22 18.33860 -64.95189 1219 ft 164 kts 91°
2026-05-06 23:22 18.33538 -64.94007 1922 ft 181 kts 120°
2026-05-06 23:22 18.32443 -64.93159 2308 ft 219 kts 162°
2026-05-06 23:22 18.30852 -64.93288 2917 ft 247 kts 201°
2026-05-06 23:23 18.29887 -64.94003 3465 ft 258 kts 225°
2026-05-06 23:23 18.29063 -64.95689 4353 ft 269 kts 254°
2026-05-06 23:23 18.28609 -64.97627 5272 ft 276 kts 253°
2026-05-06 23:23 18.28072 -64.99583 6228 ft 281 kts 252°
2026-05-06 23:24 18.27546 -65.01573 7182 ft 284 kts 253°
2026-05-06 23:24 18.27096 -65.03612 8158 ft 288 kts 258°
2026-05-06 23:24 18.26853 -65.05711 9095 ft 291 kts 266°
2026-05-06 23:24 18.26835 -65.07845 9784 ft 293 kts 272°
2026-05-06 23:25 18.27048 -65.10011 10473 ft 306 kts 278°
2026-05-06 23:25 18.27403 -65.12304 10894 ft 329 kts 279°
2026-05-06 23:25 18.27801 -65.14755 11318 ft 349 kts 279°
2026-05-06 23:25 18.28206 -65.17310 11987 ft 358 kts 279°
2026-05-06 23:26 18.28611 -65.19917 12758 ft 363 kts 279°
2026-05-06 23:26 18.29015 -65.22559 13556 ft 367 kts 279°
2026-05-06 23:26 18.29428 -65.25236 14297 ft 371 kts 280°
2026-05-06 23:26 18.29936 -65.27907 15026 ft 374 kts 282°
2026-05-06 23:27 18.30508 -65.30581 15805 ft 375 kts 283°
2026-05-06 23:27 18.31103 -65.33266 16575 ft 377 kts 284°
2026-05-06 23:27 18.31693 -65.35936 17301 ft 381 kts 283°
2026-05-06 23:27 18.32284 -65.38671 18036 ft 385 kts 283°
2026-05-06 23:28 18.32868 -65.41431 18746 ft 389 kts 283°
2026-05-06 23:28 18.33451 -65.44226 19399 ft 393 kts 283°
2026-05-06 23:28 18.34033 -65.47047 20058 ft 397 kts 283°
2026-05-06 23:28 18.34621 -65.49911 20737 ft 401 kts 283°
2026-05-06 23:29 18.35213 -65.52800 21406 ft 405 kts 283°
2026-05-06 23:29 18.35832 -65.55712 22041 ft 409 kts 285°
2026-05-06 23:29 18.36793 -65.58546 22702 ft 413 kts 296°
2026-05-06 23:29 18.38308 -65.61120 23355 ft 416 kts 307°
2026-05-06 23:30 18.40170 -65.63475 23942 ft 421 kts 312°
2026-05-06 23:30 18.42196 -65.65719 24495 ft 424 kts 314°
2026-05-06 23:30 18.44283 -65.67887 25071 ft 428 kts 315°
2026-05-06 23:30 18.46434 -65.70076 25675 ft 432 kts 315°
2026-05-06 23:31 18.48596 -65.72282 26262 ft 436 kts 315°
2026-05-06 23:31 18.50771 -65.74529 26850 ft 440 kts 314°
2026-05-06 23:31 18.52962 -65.76817 27425 ft 444 kts 314°
2026-05-06 23:31 18.55162 -65.79135 28011 ft 448 kts 314°
2026-05-06 23:32 18.57368 -65.81471 28590 ft 452 kts 313°
2026-05-06 23:32 18.59594 -65.83834 29140 ft 456 kts 313°
2026-05-06 23:32 18.61845 -65.86225 29702 ft 460 kts 313°
2026-05-06 23:32 18.64113 -65.88635 30221 ft 464 kts 313°
2026-05-06 23:33 18.66392 -65.91057 30682 ft 468 kts 313°
2026-05-06 23:33 18.68668 -65.93476 31153 ft 470 kts 313°
2026-05-06 23:33 18.70980 -65.95931 31628 ft 473 kts 313°
2026-05-06 23:33 18.73316 -65.98414 32078 ft 476 kts 313°
2026-05-06 23:34 18.75652 -66.00898 32528 ft 478 kts 313°
2026-05-06 23:34 18.78004 -66.03399 32945 ft 481 kts 313°
2026-05-06 23:34 18.80364 -66.05909 33354 ft 483 kts 313°
2026-05-06 23:34 18.82738 -66.08436 33739 ft 486 kts 313°
2026-05-06 23:35 18.85121 -66.10974 34162 ft 487 kts 313°
2026-05-06 23:35 18.87501 -66.13509 34657 ft 484 kts 313°
2026-05-06 23:35 18.89871 -66.16033 35189 ft 482 kts 313°
2026-05-06 23:35 18.92219 -66.18535 35684 ft 480 kts 312°
2026-05-06 23:36 18.94573 -66.21045 36174 ft 478 kts 312°
2026-05-06 23:36 18.96879 -66.23506 36635 ft 477 kts 312°
2026-05-06 23:36 18.99239 -66.26026 37102 ft 475 kts 311°
2026-05-06 23:36 19.01529 -66.28473 37560 ft 474 kts 311°
2026-05-06 23:37 19.03846 -66.30949 38025 ft 472 kts 311°
2026-05-06 23:37 19.06164 -66.33427 38480 ft 470 kts 311°
2026-05-06 23:37 19.08458 -66.35881 38868 ft 469 kts 311°
2026-05-06 23:37 19.10757 -66.38340 39243 ft 467 kts 311°
2026-05-06 23:38 19.13040 -66.40784 39615 ft 466 kts 311°
2026-05-06 23:38 19.15282 -66.43186 39947 ft 465 kts 311°
2026-05-06 23:38 19.17556 -66.45622 40065 ft 465 kts 311°
2026-05-06 23:39 19.22090 -66.50483 40079 ft 463 kts 311°
2026-05-06 23:39 19.26607 -66.55330 40080 ft 463 kts 311°
2026-05-06 23:40 19.31135 -66.60193 40080 ft 463 kts 311°
2026-05-06 23:40 19.35655 -66.65050 40084 ft 463 kts 312°
2026-05-06 23:41 19.40139 -66.69873 40082 ft 462 kts 312°
2026-05-06 23:41 19.44655 -66.74734 40082 ft 462 kts 312°
2026-05-06 23:42 19.49160 -66.79587 40082 ft 462 kts 312°
2026-05-06 23:42 19.53670 -66.84451 40083 ft 462 kts 312°
2026-05-06 23:43 19.58175 -66.89312 40086 ft 462 kts 313°
2026-05-06 23:43 19.62673 -66.94171 40090 ft 461 kts 313°
2026-05-06 23:44 19.67137 -66.98997 40089 ft 461 kts 313°
2026-05-06 23:44 19.71625 -67.03852 40086 ft 461 kts 313°
2026-05-06 23:45 19.76109 -67.08708 40089 ft 460 kts 313°
2026-05-06 23:45 19.80589 -67.13563 40085 ft 460 kts 313°
2026-05-06 23:46 19.85059 -67.18412 40087 ft 459 kts 314°
2026-05-06 23:46 19.89504 -67.23237 40094 ft 459 kts 314°
2026-05-06 23:47 19.93994 -67.28117 40091 ft 458 kts 314°
2026-05-06 23:47 19.98425 -67.32935 40093 ft 458 kts 314°
2026-05-06 23:48 20.02877 -67.37780 40098 ft 458 kts 315°
2026-05-06 23:48 20.07329 -67.42631 40095 ft 457 kts 315°
2026-05-06 23:49 20.11766 -67.47469 40103 ft 457 kts 315°
2026-05-06 23:49 20.16181 -67.52286 40094 ft 457 kts 315°
2026-05-06 23:50 20.20614 -67.57127 40099 ft 456 kts 315°
2026-05-06 23:50 20.27261 -67.64393 40086 ft 456 kts 315°
2026-05-06 23:51 20.31685 -67.69236 40094 ft 456 kts 315°
2026-05-06 23:51 20.36106 -67.74079 40107 ft 456 kts 315°
2026-05-06 23:52 20.40526 -67.78929 40104 ft 455 kts 315°
2026-05-06 23:52 20.44935 -67.83770 40093 ft 455 kts 315°
2026-05-06 23:53 20.49345 -67.88610 40087 ft 455 kts 315°
2026-05-06 23:53 20.53750 -67.93451 40087 ft 454 kts 316°
2026-05-06 23:54 20.58134 -67.98275 40088 ft 453 kts 316°
2026-05-06 23:54 20.62495 -68.03078 40089 ft 453 kts 316°
2026-05-06 23:55 20.66895 -68.07883 40085 ft 451 kts 318°
2026-05-06 23:55 20.71939 -68.11803 40087 ft 448 kts 333°
2026-05-06 23:56 20.77751 -68.14126 40091 ft 446 kts 345°
2026-05-06 23:56 20.83823 -68.15521 40097 ft 446 kts 349°
2026-05-06 23:57 20.89918 -68.16731 40098 ft 445 kts 348°
2026-05-06 23:57 20.95972 -68.17991 40100 ft 445 kts 348°
2026-05-06 23:58 21.02030 -68.19308 40101 ft 444 kts 348°
2026-05-06 23:58 21.08072 -68.20642 40102 ft 442 kts 348°
2026-05-06 23:59 21.14094 -68.21971 40101 ft 440 kts 348°
2026-05-06 23:59 21.20084 -68.23290 40101 ft 440 kts 348°
2026-05-07 00:00 21.26090 -68.24613 40099 ft 440 kts 348°
2026-05-07 00:00 21.31076 -68.25712 40105 ft 439 kts 348°
2026-05-07 00:01 21.38032 -68.27248 40102 ft 439 kts 348°
2026-05-07 00:01 21.44010 -68.28568 40104 ft 438 kts 348°
2026-05-07 00:02 21.49991 -68.29891 40107 ft 438 kts 348°
2026-05-07 00:02 21.55961 -68.31212 40105 ft 438 kts 348°
2026-05-07 00:03 21.61931 -68.32534 40105 ft 438 kts 348°
2026-05-07 00:03 21.67895 -68.33856 40104 ft 438 kts 348°
2026-05-07 00:04 21.73864 -68.35181 40110 ft 437 kts 348°
2026-05-07 00:04 21.79821 -68.36503 40112 ft 437 kts 348°
2026-05-07 00:05 21.85777 -68.37827 40107 ft 437 kts 348°
2026-05-07 00:05 21.91686 -68.39141 40110 ft 437 kts 348°
2026-05-07 00:06 21.97637 -68.40466 40110 ft 436 kts 348°
2026-05-07 00:06 22.03581 -68.41791 40113 ft 436 kts 348°
2026-05-07 00:07 22.09526 -68.43116 40116 ft 436 kts 347°
2026-05-07 00:07 22.15470 -68.44442 40113 ft 436 kts 347°
2026-05-07 00:08 22.21405 -68.45769 40109 ft 435 kts 347°
2026-05-07 00:08 22.27339 -68.47095 40115 ft 435 kts 347°
2026-05-07 00:09 22.33263 -68.48421 40116 ft 435 kts 347°
2026-05-07 00:09 22.39190 -68.49748 40115 ft 434 kts 347°
2026-05-07 00:10 22.45105 -68.51074 40116 ft 434 kts 347°
2026-05-07 00:10 22.51017 -68.52400 40121 ft 434 kts 347°
2026-05-07 00:11 22.56891 -68.53720 40115 ft 433 kts 347°
2026-05-07 00:11 22.62798 -68.55047 40114 ft 433 kts 347°
2026-05-07 00:12 22.67738 -68.56158 40121 ft 433 kts 347°
2026-05-07 00:12 22.73591 -68.57476 40126 ft 432 kts 347°
2026-05-07 00:13 22.79483 -68.58803 40117 ft 432 kts 347°
2026-05-07 00:13 22.85364 -68.60129 40121 ft 431 kts 347°
2026-05-07 00:14 22.91238 -68.61455 40123 ft 431 kts 347°
2026-05-07 00:14 22.97101 -68.62780 40123 ft 430 kts 347°
2026-05-07 00:15 23.02958 -68.64104 40124 ft 430 kts 347°
2026-05-07 00:15 23.08810 -68.65428 40125 ft 429 kts 347°
2026-05-07 00:16 23.14657 -68.66753 40125 ft 429 kts 347°
2026-05-07 00:16 23.20447 -68.68065 40125 ft 428 kts 347°
2026-05-07 00:17 23.26286 -68.69390 40127 ft 428 kts 347°
2026-05-07 00:17 23.32109 -68.70713 40128 ft 427 kts 347°
2026-05-07 00:18 23.37930 -68.72036 40128 ft 427 kts 347°
2026-05-07 00:18 23.43749 -68.73360 40127 ft 427 kts 347°
2026-05-07 00:19 23.49558 -68.74683 40129 ft 426 kts 347°
2026-05-07 00:19 23.55362 -68.76006 40128 ft 426 kts 347°
2026-05-07 00:20 23.61124 -68.77320 40129 ft 425 kts 347°
2026-05-07 00:20 23.66903 -68.78640 40129 ft 425 kts 347°
2026-05-07 00:21 23.72697 -68.79964 40131 ft 424 kts 347°
2026-05-07 00:21 23.78482 -68.81287 40130 ft 424 kts 347°
2026-05-07 00:22 23.84255 -68.82609 40130 ft 424 kts 347°
2026-05-07 00:22 23.90027 -68.83932 40129 ft 423 kts 347°
2026-05-07 00:23 23.95789 -68.85253 40130 ft 423 kts 347°
2026-05-07 00:23 24.01550 -68.86576 40129 ft 423 kts 347°
2026-05-07 00:24 24.07301 -68.87898 40130 ft 422 kts 347°
2026-05-07 00:24 24.13018 -68.89213 40131 ft 422 kts 347°
2026-05-07 00:25 24.18763 -68.90535 40130 ft 421 kts 347°
2026-05-07 00:25 24.24496 -68.91857 40130 ft 421 kts 347°
2026-05-07 00:26 24.30229 -68.93179 40133 ft 421 kts 347°
2026-05-07 00:26 24.35964 -68.94503 40131 ft 421 kts 347°
2026-05-07 00:27 24.41693 -68.95827 40129 ft 421 kts 347°
2026-05-07 00:27 24.47425 -68.97152 40132 ft 421 kts 347°
2026-05-07 00:28 24.53121 -68.98471 40131 ft 421 kts 347°
2026-05-07 00:28 24.58849 -68.99798 40132 ft 420 kts 347°
2026-05-07 00:29 24.64574 -69.01126 40131 ft 420 kts 347°
2026-05-07 00:30 24.76020 -69.03785 40133 ft 420 kts 347°
2026-05-07 00:30 24.81741 -69.05115 40135 ft 420 kts 347°
2026-05-07 00:31 24.87456 -69.06446 40135 ft 420 kts 347°
2026-05-07 00:31 24.93159 -69.07775 40135 ft 420 kts 347°
2026-05-07 00:32 24.98886 -69.09111 40136 ft 419 kts 347°
2026-05-07 00:32 25.04607 -69.10389 40134 ft 419 kts 348°
2026-05-07 00:33 25.10312 -69.11536 40133 ft 419 kts 348°
2026-05-07 00:33 25.16056 -69.12689 40137 ft 419 kts 348°
2026-05-07 00:34 25.21798 -69.13864 40137 ft 419 kts 348°
2026-05-07 00:34 25.27531 -69.15049 40137 ft 419 kts 348°
2026-05-07 00:35 25.33260 -69.16235 40138 ft 419 kts 348°
2026-05-07 00:35 25.38963 -69.17417 40139 ft 419 kts 348°
2026-05-07 00:36 25.44714 -69.18609 40138 ft 418 kts 348°
2026-05-07 00:36 25.50439 -69.19796 40137 ft 418 kts 348°
2026-05-07 00:37 25.56158 -69.20983 40138 ft 418 kts 348°
2026-05-07 00:37 25.61808 -69.22157 40142 ft 418 kts 348°
2026-05-07 00:38 25.67554 -69.23353 40141 ft 417 kts 348°
2026-05-07 00:38 25.73271 -69.24544 40137 ft 417 kts 348°
2026-05-07 00:39 25.78967 -69.25731 40136 ft 417 kts 348°
2026-05-07 00:39 25.84676 -69.26922 40139 ft 417 kts 348°
2026-05-07 00:40 25.90346 -69.28106 40143 ft 416 kts 348°
2026-05-07 00:40 25.96041 -69.29297 40141 ft 416 kts 348°
2026-05-07 00:41 26.01706 -69.30482 40141 ft 416 kts 347°
2026-05-07 00:41 26.07419 -69.31679 40140 ft 416 kts 347°
2026-05-07 00:42 26.13104 -69.32871 40141 ft 415 kts 347°
2026-05-07 00:42 26.18784 -69.34063 40145 ft 415 kts 347°
2026-05-07 00:43 26.24445 -69.35317 40143 ft 413 kts 343°
2026-05-07 00:43 26.30076 -69.36638 40144 ft 415 kts 348°
2026-05-07 00:44 26.35772 -69.37725 40142 ft 415 kts 348°
2026-05-07 00:44 26.41340 -69.38955 40141 ft 414 kts 346°
2026-05-07 00:45 26.47074 -69.40152 40144 ft 415 kts 348°
2026-05-07 00:45 26.52759 -69.41259 40147 ft 414 kts 348°
2026-05-07 00:46 26.58429 -69.42420 40146 ft 414 kts 347°
2026-05-07 00:46 26.64086 -69.43617 40148 ft 414 kts 347°
2026-05-07 00:47 26.69709 -69.44806 40149 ft 414 kts 347°
2026-05-07 00:47 26.75386 -69.46014 40144 ft 414 kts 347°
2026-05-07 00:48 26.81051 -69.47216 40148 ft 414 kts 347°
2026-05-07 00:48 26.86712 -69.48416 40151 ft 414 kts 347°
2026-05-07 00:49 26.92372 -69.49618 40153 ft 414 kts 347°
2026-05-07 00:49 26.98040 -69.50825 40153 ft 414 kts 347°
2026-05-07 00:50 27.03704 -69.52032 40150 ft 414 kts 347°
2026-05-07 00:50 27.09367 -69.53240 40153 ft 414 kts 347°
2026-05-07 00:51 27.15028 -69.54449 40151 ft 414 kts 347°
2026-05-07 00:51 27.20660 -69.55653 40153 ft 414 kts 347°
2026-05-07 00:52 27.26323 -69.56865 40155 ft 414 kts 347°
2026-05-07 00:52 27.31988 -69.58078 40158 ft 414 kts 347°
2026-05-07 00:53 27.37653 -69.59293 40159 ft 414 kts 347°
2026-05-07 00:53 27.43317 -69.60509 40158 ft 414 kts 347°
2026-05-07 00:54 27.48950 -69.61720 40158 ft 414 kts 347°
2026-05-07 00:54 27.54614 -69.62938 40157 ft 414 kts 347°
2026-05-07 00:55 27.60276 -69.64157 40158 ft 414 kts 347°
2026-05-07 00:55 27.65940 -69.65379 40156 ft 414 kts 347°
2026-05-07 00:56 27.71604 -69.66601 40157 ft 414 kts 347°
2026-05-07 00:56 27.77267 -69.67825 40158 ft 414 kts 347°
2026-05-07 00:57 27.82930 -69.69052 40156 ft 414 kts 347°
2026-05-07 00:57 27.88591 -69.70276 40157 ft 414 kts 347°
2026-05-07 00:58 27.94223 -69.71496 40159 ft 415 kts 347°
2026-05-07 00:58 27.99896 -69.72725 40160 ft 415 kts 347°
2026-05-07 00:59 28.08401 -69.74574 40161 ft 415 kts 347°
2026-05-07 01:00 28.14081 -69.75809 40163 ft 415 kts 347°
2026-05-07 01:00 28.18804 -69.76838 40163 ft 415 kts 346°
2026-05-07 01:01 28.24488 -69.78077 40161 ft 416 kts 346°
2026-05-07 01:01 28.30165 -69.79316 40162 ft 416 kts 346°
2026-05-07 01:02 28.35849 -69.80557 40165 ft 416 kts 346°
2026-05-07 01:02 28.41535 -69.81801 40165 ft 415 kts 346°
2026-05-07 01:03 28.47217 -69.83045 40167 ft 416 kts 346°
2026-05-07 01:03 28.52865 -69.84283 40171 ft 416 kts 346°
2026-05-07 01:04 28.58547 -69.85530 40173 ft 416 kts 346°
2026-05-07 01:04 28.64237 -69.86779 40167 ft 416 kts 346°
2026-05-07 01:05 28.69922 -69.88029 40168 ft 416 kts 346°
2026-05-07 01:05 28.75606 -69.89280 40164 ft 416 kts 346°
2026-05-07 01:06 28.81299 -69.90535 40167 ft 416 kts 346°
2026-05-07 01:06 28.86947 -69.91781 40176 ft 416 kts 346°
2026-05-07 01:07 28.92633 -69.93037 40169 ft 416 kts 346°
2026-05-07 01:07 28.98322 -69.94295 40164 ft 416 kts 346°
2026-05-07 01:08 29.04010 -69.95554 40172 ft 416 kts 346°
2026-05-07 01:08 29.09704 -69.96816 40170 ft 416 kts 346°
2026-05-07 01:09 29.15390 -69.98077 40167 ft 416 kts 346°
2026-05-07 01:09 29.21078 -69.99341 40166 ft 417 kts 346°
2026-05-07 01:10 29.26776 -70.00608 40172 ft 417 kts 346°
2026-05-07 01:10 29.32463 -70.01874 40176 ft 417 kts 346°
2026-05-07 01:11 29.38159 -70.03143 40170 ft 417 kts 346°
2026-05-07 01:11 29.43853 -70.04415 40168 ft 417 kts 346°
2026-05-07 01:12 29.49546 -70.05687 40172 ft 417 kts 346°
2026-05-07 01:12 29.55206 -70.06952 40176 ft 417 kts 346°
2026-05-07 01:13 29.60900 -70.08226 40174 ft 417 kts 346°
2026-05-07 01:13 29.66599 -70.09504 40173 ft 417 kts 346°
2026-05-07 01:14 29.72300 -70.10783 40171 ft 417 kts 346°
2026-05-07 01:14 29.77999 -70.12063 40169 ft 417 kts 346°
2026-05-07 01:15 29.83702 -70.13346 40170 ft 417 kts 346°
2026-05-07 01:15 29.89397 -70.14629 40171 ft 417 kts 346°
2026-05-07 01:16 29.95099 -70.15914 40173 ft 417 kts 346°
2026-05-07 01:16 30.00759 -70.17192 40168 ft 417 kts 346°
2026-05-07 01:17 30.06463 -70.18480 40171 ft 417 kts 346°
2026-05-07 01:17 30.12160 -70.19769 40173 ft 417 kts 346°
2026-05-07 01:18 30.17857 -70.21060 40175 ft 417 kts 346°
2026-05-07 01:18 30.23552 -70.22351 40174 ft 417 kts 346°
2026-05-07 01:19 30.29252 -70.23646 40171 ft 417 kts 346°
2026-05-07 01:19 30.34946 -70.24940 40175 ft 417 kts 346°
2026-05-07 01:20 30.40612 -70.26229 40173 ft 417 kts 346°
2026-05-07 01:20 30.46299 -70.27550 40174 ft 417 kts 345°
2026-05-07 01:21 30.51991 -70.28850 40177 ft 417 kts 346°
2026-05-07 01:21 30.57687 -70.30134 40175 ft 417 kts 345°
2026-05-07 01:22 30.63378 -70.31426 40176 ft 416 kts 345°
2026-05-07 01:22 30.69066 -70.32727 40176 ft 416 kts 345°
2026-05-07 01:23 30.74718 -70.34023 40174 ft 416 kts 345°
2026-05-07 01:23 30.80406 -70.35329 40175 ft 416 kts 345°
2026-05-07 01:24 30.86086 -70.36648 40173 ft 416 kts 345°
2026-05-07 01:24 30.91759 -70.37948 40178 ft 416 kts 345°
2026-05-07 01:25 30.97440 -70.39251 40178 ft 416 kts 345°
2026-05-07 01:25 31.03121 -70.40561 40169 ft 416 kts 345°
2026-05-07 01:26 31.08802 -70.41873 40171 ft 415 kts 345°
2026-05-07 01:26 31.14470 -70.43192 40179 ft 415 kts 345°
2026-05-07 01:27 31.20107 -70.44496 40176 ft 415 kts 345°
2026-05-07 01:27 31.25704 -70.46085 40208 ft 410 kts 334°
2026-05-07 01:28 31.30895 -70.48834 40176 ft 409 kts 330°
2026-05-07 01:28 31.35499 -70.52744 40174 ft 409 kts 319°
2026-05-07 01:29 31.39607 -70.57353 40172 ft 409 kts 316°
2026-05-07 01:29 31.43582 -70.62144 40174 ft 409 kts 315°
2026-05-07 01:30 31.47527 -70.66903 40173 ft 409 kts 315°
2026-05-07 01:30 31.51507 -70.71659 40172 ft 408 kts 316°
2026-05-07 01:31 31.55491 -70.76402 40171 ft 408 kts 316°
2026-05-07 01:31 31.59479 -70.81152 40171 ft 408 kts 315°
2026-05-07 01:32 31.63454 -70.85895 40169 ft 407 kts 315°
2026-05-07 01:32 31.67400 -70.90612 40172 ft 407 kts 315°
2026-05-07 01:33 31.71371 -70.95364 40167 ft 407 kts 315°
2026-05-07 01:33 31.75334 -71.00113 40167 ft 407 kts 315°
2026-05-07 01:34 31.79293 -71.04863 40167 ft 406 kts 315°
2026-05-07 01:34 31.83250 -71.09618 40166 ft 406 kts 315°
2026-05-07 01:35 31.87198 -71.14367 40170 ft 406 kts 315°
2026-05-07 01:35 31.91141 -71.19117 40167 ft 406 kts 315°
2026-05-07 01:36 31.95083 -71.23871 40166 ft 405 kts 315°
2026-05-07 01:36 31.99019 -71.28625 40166 ft 405 kts 315°
2026-05-07 01:37 32.02925 -71.33349 40166 ft 405 kts 315°
2026-05-07 01:37 32.06849 -71.38100 40166 ft 404 kts 315°
2026-05-07 01:38 32.10767 -71.42851 40164 ft 404 kts 315°
2026-05-07 01:38 32.14692 -71.47616 40165 ft 404 kts 315°
2026-05-07 01:39 32.18604 -71.52372 40164 ft 403 kts 315°
2026-05-07 01:39 32.22510 -71.57130 40159 ft 403 kts 314°
2026-05-07 01:40 32.26416 -71.61888 40160 ft 403 kts 314°
2026-05-07 01:40 32.30318 -71.66650 40157 ft 403 kts 314°
2026-05-07 01:41 32.34210 -71.71406 40157 ft 402 kts 314°
2026-05-07 01:41 32.38073 -71.76133 40156 ft 402 kts 314°
2026-05-07 01:42 32.41956 -71.80891 40155 ft 401 kts 314°
2026-05-07 01:42 32.45831 -71.85646 40152 ft 401 kts 314°
2026-05-07 01:43 32.49705 -71.90404 40153 ft 401 kts 314°
2026-05-07 01:43 32.53569 -71.95157 40152 ft 400 kts 314°
2026-05-07 01:44 32.57433 -71.99916 40150 ft 400 kts 314°
2026-05-07 01:44 32.61282 -72.04668 40151 ft 400 kts 314°
2026-05-07 01:45 32.65135 -72.09424 40149 ft 399 kts 314°
2026-05-07 01:45 32.68980 -72.14178 40147 ft 399 kts 314°
2026-05-07 01:46 32.72794 -72.18902 40148 ft 399 kts 313°
2026-05-07 01:46 32.76630 -72.23658 40143 ft 398 kts 313°
2026-05-07 01:47 32.80463 -72.28417 40143 ft 398 kts 313°
2026-05-07 01:47 32.83642 -72.32368 40144 ft 397 kts 313°
2026-05-07 01:48 32.87457 -72.37118 40142 ft 397 kts 313°
2026-05-07 01:48 32.91278 -72.41880 40140 ft 397 kts 313°
2026-05-07 01:49 32.95085 -72.46633 40138 ft 396 kts 313°
2026-05-07 01:49 32.98864 -72.51354 40143 ft 396 kts 313°
2026-05-07 01:50 33.02662 -72.56106 40140 ft 395 kts 313°
2026-05-07 01:50 33.06450 -72.60852 40131 ft 395 kts 313°
2026-05-07 01:51 33.10237 -72.65605 40129 ft 395 kts 313°
2026-05-07 01:51 33.14018 -72.70355 40131 ft 394 kts 313°
2026-05-07 01:52 33.17797 -72.75109 40128 ft 394 kts 313°
2026-05-07 01:52 33.21564 -72.79854 40127 ft 394 kts 313°
2026-05-07 01:53 33.25333 -72.84607 40128 ft 394 kts 312°
2026-05-07 01:53 33.29098 -72.89363 40130 ft 394 kts 312°
2026-05-07 01:54 33.32834 -72.94088 40125 ft 393 kts 312°
2026-05-07 01:54 33.36598 -72.98855 40123 ft 393 kts 312°
2026-05-07 01:55 33.40356 -73.03621 40129 ft 393 kts 312°
2026-05-07 01:55 33.44109 -73.08387 40126 ft 393 kts 312°
2026-05-07 01:56 33.47855 -73.13151 40128 ft 392 kts 312°
2026-05-07 01:56 33.51571 -73.17883 40125 ft 392 kts 312°
2026-05-07 01:57 33.55307 -73.22646 40125 ft 392 kts 312°
2026-05-07 01:57 33.59041 -73.27414 40122 ft 392 kts 312°
2026-05-07 01:58 33.62775 -73.32186 40126 ft 391 kts 311°
2026-05-07 01:58 33.66476 -73.36924 40120 ft 391 kts 311°
2026-05-07 01:59 33.70190 -73.41689 40121 ft 391 kts 311°
2026-05-07 01:59 33.73907 -73.46459 40120 ft 390 kts 311°
2026-05-07 02:00 33.77610 -73.51229 40117 ft 390 kts 311°
2026-05-07 02:00 33.81494 -73.55798 40113 ft 392 kts 318°
2026-05-07 02:01 33.86173 -73.59274 40115 ft 400 kts 330°
2026-05-07 02:01 33.91437 -73.61506 40114 ft 407 kts 337°
2026-05-07 02:02 33.96931 -73.63228 40114 ft 408 kts 338°
2026-05-07 02:02 34.02433 -73.64903 40113 ft 408 kts 338°
2026-05-07 02:03 34.07926 -73.66646 40111 ft 407 kts 337°
2026-05-07 02:03 34.13407 -73.68428 40110 ft 407 kts 337°
2026-05-07 02:04 34.18880 -73.70217 40106 ft 407 kts 337°
2026-05-07 02:04 34.24352 -73.72006 40094 ft 407 kts 337°
2026-05-07 02:05 34.29822 -73.73795 40104 ft 407 kts 337°
2026-05-07 02:05 34.35045 -73.76184 40102 ft 396 kts 326°
2026-05-07 02:06 34.39502 -73.79958 40098 ft 388 kts 314°
2026-05-07 02:06 34.43326 -73.84495 40095 ft 387 kts 311°
2026-05-07 02:07 34.47083 -73.89179 40093 ft 387 kts 311°
2026-05-07 02:07 34.52704 -73.96192 40091 ft 386 kts 311°
2026-05-07 02:08 34.56459 -74.00851 40087 ft 386 kts 311°
2026-05-07 02:08 34.60189 -74.05476 40083 ft 386 kts 311°
2026-05-07 02:09 34.63935 -74.10129 40083 ft 385 kts 311°
2026-05-07 02:09 34.67684 -74.14792 40077 ft 385 kts 311°
2026-05-07 02:10 34.71424 -74.19451 40075 ft 385 kts 311°
2026-05-07 02:10 34.75141 -74.24089 40071 ft 384 kts 311°
2026-05-07 02:11 34.78870 -74.28749 40076 ft 384 kts 311°
2026-05-07 02:11 34.82595 -74.33409 40067 ft 384 kts 310°
2026-05-07 02:12 34.86317 -74.38072 40064 ft 383 kts 310°
2026-05-07 02:12 34.90032 -74.42733 40063 ft 383 kts 310°
2026-05-07 02:13 34.93742 -74.47394 40061 ft 383 kts 310°
2026-05-07 02:13 34.97447 -74.52056 40059 ft 383 kts 310°
2026-05-07 02:14 35.01150 -74.56720 40054 ft 382 kts 310°
2026-05-07 02:14 35.04843 -74.61379 40051 ft 382 kts 310°
2026-05-07 02:15 35.08512 -74.66015 40046 ft 381 kts 310°
2026-05-07 02:15 35.12193 -74.70670 40046 ft 381 kts 310°
2026-05-07 02:16 35.15871 -74.75328 40041 ft 380 kts 310°
2026-05-07 02:16 35.19538 -74.79980 40037 ft 380 kts 309°
2026-05-07 02:17 35.23186 -74.84655 40039 ft 380 kts 309°
2026-05-07 02:17 35.26849 -74.89311 40043 ft 379 kts 309°
2026-05-07 02:18 35.30517 -74.93957 40025 ft 379 kts 309°
2026-05-07 02:18 35.34174 -74.98610 40024 ft 379 kts 309°
2026-05-07 02:19 35.37796 -75.03236 40021 ft 379 kts 309°
2026-05-07 02:19 35.41464 -75.07929 40021 ft 379 kts 309°
2026-05-07 02:20 35.45105 -75.12595 40013 ft 378 kts 309°
2026-05-07 02:20 35.48742 -75.17260 40013 ft 378 kts 309°
2026-05-07 02:21 35.52370 -75.21931 40007 ft 378 kts 308°
2026-05-07 02:21 35.55990 -75.26613 40007 ft 378 kts 308°
2026-05-07 02:22 35.59605 -75.31252 40002 ft 378 kts 308°
2026-05-07 02:22 35.63237 -75.35922 40002 ft 378 kts 308°
2026-05-07 02:23 35.66857 -75.40595 39994 ft 377 kts 308°
2026-05-07 02:23 35.70475 -75.45276 39997 ft 377 kts 308°
2026-05-07 02:24 35.74090 -75.49959 39997 ft 377 kts 308°
2026-05-07 02:24 35.77703 -75.54647 39995 ft 377 kts 308°
2026-05-07 02:25 35.81318 -75.59345 39997 ft 377 kts 307°
2026-05-07 02:25 35.84925 -75.64039 40000 ft 377 kts 307°
2026-05-07 02:26 35.88482 -75.68708 40000 ft 377 kts 307°
2026-05-07 02:26 35.92105 -75.73426 40000 ft 378 kts 307°
2026-05-07 02:27 35.95727 -75.78122 39999 ft 378 kts 307°
2026-05-07 02:27 35.99340 -75.82828 39998 ft 378 kts 307°
2026-05-07 02:28 36.02953 -75.87552 39982 ft 378 kts 307°
2026-05-07 02:28 36.06561 -75.92281 39982 ft 378 kts 307°
2026-05-07 02:29 36.10168 -75.97014 39974 ft 378 kts 307°
2026-05-07 02:29 36.13775 -76.01752 39969 ft 378 kts 307°
2026-05-07 02:30 36.17366 -76.06461 39968 ft 379 kts 307°
2026-05-07 02:30 36.21513 -76.10661 39972 ft 392 kts 318°
2026-05-07 02:31 36.26588 -76.13557 39969 ft 414 kts 331°
2026-05-07 02:31 36.29445 -76.14350 39970 ft 428 kts 339°
2026-05-07 02:31 36.32476 -76.14620 39973 ft 444 kts 347°
2026-05-07 02:32 36.35573 -76.14307 39972 ft 461 kts 355°
2026-05-07 02:32 36.38751 -76.13366 39959 ft 476 kts
2026-05-07 02:32 36.45127 -76.11141 39957 ft 477 kts
2026-05-07 02:33 36.51520 -76.08846 39954 ft 478 kts
2026-05-07 02:33 36.57922 -76.06605 39955 ft 477 kts
2026-05-07 02:34 36.64303 -76.04413 39956 ft 477 kts
2026-05-07 02:34 36.69632 -76.02589 39955 ft 477 kts
2026-05-07 02:35 36.76048 -76.00388 39945 ft 478 kts
2026-05-07 02:35 36.83494 -75.97827 39943 ft 478 kts
2026-05-07 02:36 36.89911 -75.95616 39948 ft 478 kts
2026-05-07 02:36 36.95293 -75.93757 39946 ft 479 kts
2026-05-07 02:37 37.01722 -75.91536 39944 ft 479 kts
2026-05-07 02:37 37.08112 -75.89321 39938 ft 480 kts
2026-05-07 02:38 37.14550 -75.87084 39936 ft 480 kts
2026-05-07 02:38 37.20997 -75.84842 39931 ft 480 kts
2026-05-07 02:39 37.27445 -75.82595 39925 ft 480 kts
2026-05-07 02:39 37.33886 -75.80348 39926 ft 481 kts
2026-05-07 02:40 37.40335 -75.78095 39918 ft 481 kts
2026-05-07 02:40 37.46794 -75.75834 39920 ft 482 kts
2026-05-07 02:41 37.53260 -75.73584 39918 ft 482 kts
2026-05-07 02:41 37.59687 -75.71325 39913 ft 483 kts
2026-05-07 02:42 37.66170 -75.69027 39916 ft 484 kts
2026-05-07 02:42 37.72650 -75.66735 39916 ft 484 kts
2026-05-07 02:43 37.79145 -75.64440 39918 ft 484 kts
2026-05-07 02:43 37.85619 -75.62418 39764 ft 487 kts
2026-05-07 02:44 37.88800 -75.60576 39554 ft 518 kts 19°
2026-05-07 02:44 37.91781 -75.57869 39332 ft 535 kts 26°
2026-05-07 02:44 37.94648 -75.54842 39098 ft 540 kts 28°
2026-05-07 02:44 37.97536 -75.51768 38867 ft 540 kts 27°
2026-05-07 02:45 38.00467 -75.48798 38648 ft 537 kts 25°
2026-05-07 02:45 38.03408 -75.45987 38393 ft 535 kts 23°
2026-05-07 02:45 38.06462 -75.43217 38120 ft 532 kts 20°
2026-05-07 02:45 38.09499 -75.40660 37854 ft 529 kts 19°
2026-05-07 02:46 38.12606 -75.38176 37587 ft 528 kts 19°
2026-05-07 02:46 38.15732 -75.35697 37315 ft 530 kts 19°
2026-05-07 02:46 38.18861 -75.33200 37051 ft 531 kts 19°
2026-05-07 02:46 38.22010 -75.30743 36818 ft 526 kts 16°
2026-05-07 02:47 38.25270 -75.28793 36569 ft 510 kts
2026-05-07 02:47 38.28612 -75.27523 36316 ft 494 kts 359°
2026-05-07 02:47 38.31969 -75.26645 36073 ft 491 kts 357°
2026-05-07 02:47 38.35340 -75.25885 35832 ft 491 kts 356°
2026-05-07 02:48 38.38715 -75.25186 35591 ft 492 kts 355°
2026-05-07 02:48 38.42096 -75.24507 35348 ft 493 kts 355°
2026-05-07 02:48 38.45449 -75.23833 35119 ft 495 kts 356°
2026-05-07 02:48 38.48857 -75.23139 34946 ft 497 kts 356°
2026-05-07 02:49 38.55755 -75.21704 34903 ft 499 kts 356°
2026-05-07 02:49 38.62568 -75.20279 34906 ft 499 kts 356°
2026-05-07 02:50 38.69424 -75.18168 34907 ft 523 kts
2026-05-07 02:50 38.72748 -75.16096 34909 ft 542 kts 20°
2026-05-07 02:50 38.75883 -75.13300 34903 ft 553 kts 27°
2026-05-07 02:51 38.81993 -75.07269 34799 ft 554 kts 27°
2026-05-07 02:51 38.85050 -75.04250 34574 ft 555 kts 27°
2026-05-07 02:51 38.88115 -75.01230 34355 ft 556 kts 27°
2026-05-07 02:52 38.91192 -74.98199 34126 ft 557 kts 27°
2026-05-07 02:52 38.94268 -74.95168 33905 ft 559 kts 28°
2026-05-07 02:52 38.97363 -74.92114 33636 ft 560 kts 28°
2026-05-07 02:52 39.00461 -74.89053 33364 ft 561 kts 28°
2026-05-07 02:53 39.03563 -74.85986 33114 ft 562 kts 28°
2026-05-07 02:53 39.06628 -74.82954 32855 ft 563 kts 28°
2026-05-07 02:53 39.09744 -74.79876 32592 ft 565 kts 28°
2026-05-07 02:53 39.12823 -74.76714 32348 ft 569 kts 31°
2026-05-07 02:54 39.15840 -74.73417 31664 ft 567 kts 32°
2026-05-07 02:54 39.18847 -74.70115 30565 ft 569 kts 32°
2026-05-07 02:54 39.21888 -74.66800 29332 ft 573 kts 32°
2026-05-07 02:54 39.24934 -74.63483 28270 ft 572 kts 32°
2026-05-07 02:55 39.27950 -74.60194 27468 ft 564 kts 32°
2026-05-07 02:55 39.30935 -74.56937 26653 ft 558 kts 32°
2026-05-07 02:55 39.33885 -74.53735 25842 ft 552 kts 32°
2026-05-07 02:55 39.36806 -74.50558 25035 ft 546 kts 32°
2026-05-07 02:56 39.39690 -74.47410 24239 ft 541 kts 33°
2026-05-07 02:56 39.42512 -74.44331 23475 ft 535 kts 32°
2026-05-07 02:56 39.45376 -74.41208 22586 ft 527 kts 33°
2026-05-07 02:56 39.48149 -74.38181 21778 ft 519 kts 33°
2026-05-07 02:57 39.50875 -74.35227 21005 ft 509 kts 33°
2026-05-07 02:57 39.53567 -74.32290 20234 ft 502 kts 34°
2026-05-07 02:57 39.56206 -74.29382 19516 ft 493 kts 34°
2026-05-07 02:57 39.58791 -74.26537 18890 ft 482 kts 34°
2026-05-07 02:58 39.61324 -74.23764 18489 ft 471 kts 35°
2026-05-07 02:58 39.63808 -74.21026 18210 ft 470 kts 35°
2026-05-07 02:58 39.66308 -74.18269 17940 ft 468 kts 35°
2026-05-07 02:58 39.68779 -74.15547 17880 ft 468 kts 35°
2026-05-07 02:59 39.71275 -74.12795 17857 ft 467 kts 34°
2026-05-07 02:59 39.73762 -74.10066 17890 ft 467 kts 35°
2026-05-07 02:59 39.76195 -74.07374 17886 ft 467 kts 35°
2026-05-07 02:59 39.78716 -74.04610 17887 ft 467 kts 35°
2026-05-07 03:00 39.81184 -74.01869 17885 ft 467 kts 36°
2026-05-07 03:00 39.83652 -73.99186 17877 ft 465 kts 32°
2026-05-07 03:00 39.86365 -73.96950 17878 ft 458 kts 23°
2026-05-07 03:00 39.89160 -73.94967 17874 ft 456 kts 22°
2026-05-07 03:01 39.91906 -73.93039 17596 ft 440 kts 22°
2026-05-07 03:01 39.94554 -73.91172 17282 ft 424 kts 22°
2026-05-07 03:01 39.97106 -73.89368 16972 ft 410 kts 22°
2026-05-07 03:01 39.99573 -73.87622 16689 ft 397 kts 22°
2026-05-07 03:02 40.01927 -73.85830 16425 ft 389 kts 28°
2026-05-07 03:02 40.04094 -73.83778 16222 ft 379 kts 31°
2026-05-07 03:02 40.06157 -73.81712 15973 ft 368 kts 32°
2026-05-07 03:02 40.08173 -73.79689 15625 ft 363 kts 32°
2026-05-07 03:03 40.10166 -73.77696 15195 ft 360 kts 32°
2026-05-07 03:03 40.12148 -73.75712 14770 ft 358 kts 32°
2026-05-07 03:03 40.14121 -73.73736 14335 ft 356 kts 32°
2026-05-07 03:03 40.16087 -73.71774 13905 ft 354 kts 32°
2026-05-07 03:04 40.18040 -73.69834 13448 ft 353 kts 32°
2026-05-07 03:04 40.19980 -73.67882 12985 ft 350 kts 33°
2026-05-07 03:04 40.21877 -73.65965 12551 ft 347 kts 33°
2026-05-07 03:04 40.23778 -73.64046 12126 ft 344 kts 33°
2026-05-07 03:05 40.25668 -73.62140 11709 ft 341 kts 33°
2026-05-07 03:05 40.27540 -73.60253 11285 ft 338 kts 33°
2026-05-07 03:05 40.29397 -73.58381 10881 ft 335 kts 33°
2026-05-07 03:05 40.31234 -73.56535 10469 ft 331 kts 32°
2026-05-07 03:06 40.33190 -73.55033 10012 ft 321 kts 14°
2026-05-07 03:06 40.35304 -73.54308 9608 ft 310 kts
2026-05-07 03:06 40.37416 -73.53806 9150 ft 307 kts
2026-05-07 03:06 40.39517 -73.53319 8689 ft 305 kts
2026-05-07 03:07 40.41597 -73.52828 8260 ft 302 kts
2026-05-07 03:07 40.43655 -73.52335 7824 ft 300 kts
2026-05-07 03:07 40.45701 -73.51841 7376 ft 297 kts
2026-05-07 03:07 40.47728 -73.51348 6937 ft 295 kts
2026-05-07 03:08 40.49743 -73.50857 6504 ft 293 kts
2026-05-07 03:08 40.51744 -73.50368 6070 ft 291 kts
2026-05-07 03:08 40.53723 -73.49886 5660 ft 288 kts
2026-05-07 03:08 40.55685 -73.49408 5228 ft 286 kts
2026-05-07 03:09 40.57637 -73.48928 4801 ft 283 kts
2026-05-07 03:09 40.59539 -73.48463 4364 ft 280 kts
2026-05-07 03:09 40.61436 -73.47996 4001 ft 276 kts
2026-05-07 03:09 40.63310 -73.47535 4043 ft 274 kts
2026-05-07 03:10 40.65204 -73.47071 4594 ft 280 kts
2026-05-07 03:10 40.67131 -73.46597 5224 ft 283 kts
2026-05-07 03:10 40.69038 -73.45894 5325 ft 289 kts 16°
2026-05-07 03:10 40.70892 -73.44781 5343 ft 294 kts 21°
2026-05-07 03:11 40.72733 -73.43590 5340 ft 295 kts 21°
2026-05-07 03:11 40.74629 -73.42645 5325 ft 287 kts
2026-05-07 03:11 40.76540 -73.42807 5330 ft 269 kts 334°
2026-05-07 03:11 40.78071 -73.44057 5329 ft 254 kts 308°
2026-05-07 03:12 40.79095 -73.45904 5309 ft 245 kts 295°
2026-05-07 03:12 40.79958 -73.47833 4825 ft 246 kts 295°
2026-05-07 03:12 40.80830 -73.49790 4271 ft 248 kts 297°
2026-05-07 03:12 40.81640 -73.51677 3994 ft 221 kts 291°
2026-05-07 03:13 40.82018 -73.53472 3959 ft 188 kts 272°
2026-05-07 03:13 40.81926 -73.55148 3758 ft 183 kts 257°
2026-05-07 03:13 40.81552 -73.56748 3571 ft 180 kts 252°
2026-05-07 03:13 40.81142 -73.58254 3414 ft 171 kts 252°
2026-05-07 03:14 40.80752 -73.59693 3255 ft 167 kts 252°
2026-05-07 03:14 40.80368 -73.61128 3059 ft 165 kts 252°
2026-05-07 03:14 40.79299 -73.63705 3001 ft 165 kts 226°
2026-05-07 03:15 40.78356 -73.64599 2892 ft 166 kts 218°
2026-05-07 03:15 40.77420 -73.65348 2814 ft 149 kts 218°
2026-05-07 03:15 40.76562 -73.66019 2610 ft 139 kts 218°
2026-05-07 03:15 40.75741 -73.66665 2508 ft 137 kts 218°
2026-05-07 03:16 40.74929 -73.67313 2398 ft 136 kts 218°
2026-05-07 03:16 40.74122 -73.67956 2220 ft 136 kts 218°
2026-05-07 03:16 40.73322 -73.68582 2024 ft 129 kts 218°
2026-05-07 03:16 40.72580 -73.69162 1858 ft 120 kts 219°
2026-05-07 03:17 40.71872 -73.69720 1709 ft 118 kts 219°
2026-05-07 03:17 40.71176 -73.70268 1551 ft 118 kts 219°
2026-05-07 03:17 40.70465 -73.70827 1388 ft 117 kts 219°
2026-05-07 03:17 40.69774 -73.71370 1236 ft 117 kts 218°
2026-05-07 03:18 40.69072 -73.71920 1079 ft 118 kts 217°
2026-05-07 03:18 40.68365 -73.72476 922 ft 118 kts 217°
2026-05-07 03:18 40.67654 -73.73035 768 ft 120 kts 214°
2026-05-07 03:18 40.66938 -73.73609 645 ft 123 kts 212°
2026-05-07 03:19 40.66212 -73.74200 462 ft 121 kts 211°
2026-05-07 03:19 40.65482 -73.74761 307 ft 122 kts 203°
2026-05-07 03:19 40.64735 -73.75285 138 ft 121 kts 220°
2026-05-07 03:19 40.64024 -73.75892 30 ft 118 kts 210°
2026-05-07 03:20 40.63469 -73.76318 30 ft 65 kts 208°
2026-05-07 03:20 40.63203 -73.76519 28 ft 35 kts 210°
2026-05-07 03:20 40.63025 -73.76699 27 ft 28 kts 230°
2026-05-07 03:20 40.62944 -73.76864 27 ft 16 kts 247°
2026-05-07 03:21 40.62942 -73.77002 27 ft 15 kts 289°
2026-05-07 03:21 40.62995 -73.77122 27 ft 15 kts 303°
2026-05-07 03:21 40.63055 -73.77246 28 ft 17 kts 301°
2026-05-07 03:21 40.63117 -73.77381 28 ft 18 kts 301°
2026-05-07 03:22 40.63161 -73.77476 28 ft 18 kts 300°
2026-05-07 03:22 40.63227 -73.77625 30 ft 19 kts 300°
2026-05-07 03:22 40.63296 -73.77776 30 ft 18 kts 300°
2026-05-07 03:22 40.63365 -73.77930 27 ft 21 kts 299°
2026-05-07 03:23 40.63444 -73.78120 27 ft 18 kts 299°
2026-05-07 03:23 40.63488 -73.78217 27 ft 19 kts 301°
2026-05-07 03:23 40.63560 -73.78372 27 ft 20 kts 301°
2026-05-07 03:23 40.63635 -73.78538 28 ft 22 kts 301°
2026-05-07 03:24 40.63719 -73.78723 28 ft 25 kts 301°
2026-05-07 03:24 40.63814 -73.78931 27 ft 28 kts 301°
2026-05-07 03:24 40.63882 -73.79080 27 ft 15 kts 301°
2026-05-07 03:24 40.63940 -73.79209 27 ft 18 kts 300°
2026-05-07 03:25 40.64009 -73.79360 27 ft 20 kts 301°
2026-05-07 03:25 40.64089 -73.79532 27 ft 23 kts 303°
2026-05-07 03:25 40.64168 -73.79698 27 ft 9 kts 301°
2026-05-07 03:25 40.64211 -73.79780 27 ft 13 kts 309°
2026-05-07 03:26 40.64280 -73.79878 27 ft 12 kts 314°
2026-05-07 03:26 40.64338 -73.79973 27 ft 14 kts 302°
2026-05-07 03:26 40.64393 -73.80096 27 ft 17 kts 299°
2026-05-07 03:26 40.64456 -73.80228 27 ft 18 kts 299°
2026-05-07 03:27 40.64524 -73.80384 26 ft 22 kts 300°
2026-05-07 03:27 40.64592 -73.80533 26 ft 18 kts 301°
2026-05-07 03:27 40.64662 -73.80684 26 ft 20 kts 301°
2026-05-07 03:27 40.64740 -73.80853 27 ft 19 kts 301°
2026-05-07 03:28 40.64813 -73.81017 27 ft 22 kts 300°
2026-05-07 03:28 40.64897 -73.81207 27 ft 24 kts 300°
2026-05-07 03:28 40.64945 -73.81321 27 ft 6 kts 299°
2026-05-07 03:28 40.64946 -73.81323 27 ft 0 kts 299°
2026-05-07 03:29 40.64950 -73.81333 27 ft 3 kts 300°
2026-05-07 03:29 40.64991 -73.81417 27 ft 15 kts 303°
2026-05-07 03:29 40.65052 -73.81548 27 ft 19 kts 301°
2026-05-07 03:29 40.65110 -73.81671 26 ft 4 kts 311°
2026-05-07 03:30 40.65124 -73.81670 27 ft 6 kts 11°
2026-05-07 03:30 40.65185 -73.81649 27 ft 11 kts
2026-05-07 03:30 40.65254 -73.81609 26 ft 12 kts 39°
2026-05-07 03:30 40.65281 -73.81585 26 ft 0 kts 33°
2026-05-07 03:34 40.65318 -73.81553 26 ft 16 kts 33°
2026-05-07 03:34 40.65408 -73.81473 26 ft 16 kts 35°
2026-05-07 03:35 40.65495 -73.81389 26 ft 16 kts 37°
2026-05-07 03:35 40.65556 -73.81324 26 ft 10 kts 336°
2026-05-07 03:35 40.65541 -73.81407 26 ft 4 kts 230°
2026-05-07 03:35 40.65477 -73.81453 26 ft 3 kts 198°
2026-05-07 03:36 40.65408 -73.81525 26 ft 16 kts 240°
2026-05-07 03:36 40.65366 -73.81630 26 ft 9 kts 228°
2026-05-07 03:36 40.65284 -73.81716 26 ft 16 kts 217°
2026-05-07 03:36 40.65193 -73.81786 27 ft 16 kts 185°
2026-05-07 03:37 40.65130 -73.81724 27 ft 12 kts 106°
2026-05-07 03:37 40.65144 -73.81663 27 ft 11 kts 40°
2026-05-07 03:37 40.65198 -73.81615 27 ft 12 kts 31°
2026-05-07 03:37 40.65244 -73.81587 26 ft 8 kts 345°
2026-05-07 03:38 40.65278 -73.81633 26 ft 8 kts 297°
2026-05-07 03:38 40.65285 -73.81682 26 ft 7 kts 254°
2026-05-07 03:38 40.65284 -73.81631 26 ft 7 kts 282°
2026-05-07 03:38 40.65285 -73.81635 26 ft 0 kts 286°